Location: Marcé
(47.5801°N, 0.3280°W)
Time: 15:52:25
(UTC+01:00)

SR - Pass Details

Date: 07 December 2021
Orbit: 582 x 872 km, 66.7° (Epoch: 22 January)

Event Time Altitude Azimuth Distance (km) Brightness Sun altitude
Rises 06:43:28 0° 332° (NNW) 2,816 - -18.0°
Reaches altitude 10° 06:46:09 10° 349° (N) 1,922 - -17.6°
Exits shadow 06:46:10 10° 350° (N) 1,920 ? -17.6°
Maximum altitude 06:49:25 21° 39° (NE) 1,374 ? -17.0°
Drops below altitude 10° 06:52:47 10° 89° (E) 1,979 ? -16.5°
Sets 06:55:35 0° 106° (ESE) 2,925 ? -16.0°
